Regional Weather Roundup
Issued by NWS Grand Forks, ND

Home | Current Version | Previous Version | Text Only | Print | Product List | Glossary On
Versions: 1 2 3 4 5 6 7 8 9 10 11 12 13 14 15 16 17 18 19 20 21 22 23 24 25 26 27 28 29 30 31 32 33 34 35 36 37 38 39 40 41 42 43 44 45 46 47 48 49 50
000
ASUS43 KFGF 282331
RWRFGF
PRAIRIE TO PINES  WEATHER ROUNDUP
NATIONAL WEATHER SERVICE EASTERN NORTH DAKOTA/GRAND FORKS ND
600 PM CDT SAT MAY 28 2016

 **SATELLITE DATA USED TO AUGMENT SKY COVER AT AUTOMATED STATIONS**
 *****  WEATHER ACROSS EASTERN NORTH DAKOTA  *****

CITY           SKY/WX    TMP DP  RH WIND       PRES   REMARKS
GRAND FORKS    LGT RAIN  68  57  68 NE10      29.81S
GRAND FRKS AFB CLOUDY    68  55  64 E9        29.83R
GRAND FRKS NWS   N/A     63 N/A N/A E12         N/A
DEVILS LAKE    CLOUDY    68  57  68 NW8       29.86S
FARGO          CLOUDY    66  57  72 N12       29.81S
WAHPETON ARPT  MOCLDY    66  54  63 N7        29.81R
$$

 ***** WEATHER ACROSS CENTRAL AND WESTERN NORTH DAKOTA  *****

CITY           SKY/WX    TMP DP  RH WIND       PRES   REMARKS
BISMARCK       CLOUDY    64  51  62 W21G29    29.90R
MINOT          MOSUNNY   71  52  50 MISG      29.87S
JAMESTOWN      MOSUNNY   70  54  56 NW9       29.83S
MINOT AFB      CLOUDY    66  52  60 NE5       29.87S
GARRISON         N/A     67  51  56 N5        29.88R
WILLISTON      LGT RAIN  60  55  83 CALM      29.90R
DICKINSON      CLOUDY    64  49  57 W3        29.89R
HETTINGER      MOSUNNY   65  53  65 NE6       29.91F
$$

 *****  OTHER AIRPORT OBSERVATIONS IN OUR AREA  *****

CITY           SKY/WX    TMP DP  RH WIND       PRES   REMARKS
WALHALLA       FAIR      63  63 100 N12       29.87S
GRAFTON AIRPOR CLOUDY    64  63  94 N12G18    29.85R
VALLEY CITY AR MOCLDY    68  59  73 NE12      29.84S
CANDO          CLOUDY    66  57  72 N13       29.89S
CAVALIER APRT  MOCLDY    66  61  82 N12G18    29.84S
GWINNER        FAIR      64  61  88 N5        29.83F
SHEYENNE NWR     N/A     67  61  79 E6        29.95S
ROLLA          CLOUDY    59  59 100 N14       29.91S
 ***** THE ABOVE OBSERVATIONS ARE NON NWS ARE NOT QUALITY
       CONTROLLED AND MAY MIS-REPORT RAIN FOR SNOW...
$$

  *****  WEATHER ACROSS NORTHERN MINNESOTA  *****

CITY           SKY/WX    TMP DP  RH WIND       PRES   REMARKS
FLAG ISLAND    CLOUDY    57  55  94 NE16      29.85S FOG
WARROAD        DRIZZLE   57  54  88 NE8G16    29.86R
ROSEAU         RAIN      61  54  77 E9        29.85S
HALLOCK        CLOUDY    66  59  77 E10       29.83R
THF RVR FALLS  CLOUDY    61  57  88 N8        29.84S
BAUDETTE       CLOUDY    58  55  90 NE10      29.82F
WASKISH        CLOUDY    61  57  88 NE3       29.81S FOG
CROOKSTON      RAIN      61  61 100 NE7       29.83S
STEPHEN NDAWN    N/A     64  61  88 E8          N/A
GREENBUSH NDAW   N/A    N/A N/A N/A E6          N/A
$$
  *****  WEATHER ACROSS CENTRAL AND WEST MINNESOTA  *****

CITY           SKY/WX    TMP DP  RH WIND       PRES   REMARKS
FOSSTON        RAIN      57  57 100 N5        29.82S
BEMIDJI        RAIN      59  57  94 CALM      29.80S
PARK RAPIDS    LGT RAIN  60  57  89 CALM      29.79F FOG
ELBOW LAKE     DRIZZLE   62  58  85 NW6       29.80S
WADENA         LGT RAIN  61  55  82 NW5       29.78F
DETROIT LAKES  CLOUDY    61  57  88 NW6       29.81F
MOORHEAD       CLOUDY    64  59  82 N10       29.81S
FERGUS FALLS   CLOUDY    64  55  72 NW3       29.76F
MORRIS MN      PTSUNNY   64  61  88 NW7       29.79S
STAPLES        PTSUNNY   61  55  82 NW6       29.78F
$$
  *****  WEATHER ELSEWHERE ACROSS MINNESOTA  *****

CITY           SKY/WX    TMP DP  RH WIND       PRES   REMARKS
DULUTH         CLOUDY    55  53  93 SE7       29.81S
INTRNTL FALLS  LGT RAIN  59  58  96 NE5       29.81S VSB 1/2
ELY            CLOUDY    63  61  94 CALM      29.80S
CLOQUET        CLOUDY    61  55  82 E5        29.80S
WHEATON        DRIZZLE   68  59  73 CALM      29.82S
BRAINERD       CLOUDY    60  58  92 W3        29.79S
HIBBING        CLOUDY    60  57  89 SE3       29.80R
ALEXANDRIA     CLOUDY    62  58  86 N7        29.80F
SAINT CLOUD    CLOUDY    63  60  90 NW9       29.78R
MINNEAPOLIS    CLOUDY    66  59  78 VRB5      29.77S
$$

  *****  WEATHER ACROSS SOUTH DAKOTA  *****

CITY           SKY/WX    TMP DP  RH WIND       PRES   REMARKS
SIOUX FALLS    LGT RAIN  65  61  87 N9        29.81R
BROOKINGS      PTSUNNY   63  58  83 N7        29.83R
WATERTOWN      CLOUDY    65  57  75 N6        29.83R
HURON          CLOUDY    66  59  78 NE6       29.85R
SISSETON         N/A     69  54  58 NE6       29.80R
ABERDEEN       PTSUNNY   69  56  62 E8        29.84S
MITCHELL       LGT RAIN  62  59  90 NW6       29.86S
PIERRE         PTSUNNY   72  54  53 E3        29.85R
MOBRIDGE       PTSUNNY   75  49  39 N6        29.83S
RAPID CITY     CLOUDY    66  51  58 W10       29.94S
$$

  *****  SOME WEATHER IN NEARBY STATES *****

CITY           SKY/WX    TMP DP  RH WIND       PRES   REMARKS
GLASGOW MT     PTSUNNY   65  43  44 NW7       29.91R
GREAT FALLS MT PTSUNNY   61  28  28 W16       29.98F
CHEYENNE WY    LGT RAIN  61  38  42 N12G31    30.06R
SCOTTSBLUFF NE PTSUNNY   77  43  29 NW13G20   29.94R
OMAHA NE       PTSUNNY   74  56  53 W16G24    29.82R
DES MOINES IA  MOSUNNY   75  59  57 SW15G24   29.80R
DAVENPORT IA   CLOUDY    76  67  73 SW10      29.83R
CHICAGO IL     MOSUNNY   81  66  60 S20G28    29.87F
EAU CLAIRE WI  CLOUDY    75  61  61 S8        29.74S
LA CROSSE WI   CLOUDY    70  65  84 S9        29.75F
$$

  *****  SOME NATIONAL WEATHER *****

CITY           SKY/WX    TMP DP  RH WIND       PRES   REMARKS
LA GUARDIA NY  FAIR      82  70  65 SE9       30.07R
RALEIGH NC     FAIR      85  58  39 SE3       30.11F
ATLANTA GA     FAIR      85  53  33 NE7G16    30.09S
NEW ORLEANS LA PTSUNNY   80  69  69 SE10      30.02R
OKLAHOMA CITY  FAIR      82  63  52 S6        29.94F
ALBUQUERQUE NM MOSUNNY   80  23  12 SW9       30.04F
SALT LAKE CITY MOSUNNY   75  39  27 N9        30.00F
LOS ANGELES CA PTSUNNY   64  55  72 W13       29.88S
BOISE ID       SUNNY     69  26  20 N8        30.02F
SEATTLE WA     CLOUDY    59  48  67 SW10      30.06S
$$

*** WEATHER ACROSS MANITOBA...SASKATCHEWAN AND ONTARIO ***
                ***ONTARIO***

CITY           SKY/WX    TMP DP  RH WIND       PRES   REMARKS
GERALDTON      LGT RAIN  57  55  94 E13G20    29.89F VSB 1
THUNDER BAY    LGT RAIN  57  57 100 NE7       29.80F FOG
SIOUX LOOKOUT  DRIZZLE   55  52  88 E7G17     29.89S
TORONTO        PTSUNNY   79  63  57 SE10      30.03R
BIG TROUT LK   CLOUDY    54  43  66 E8        30.14S
PICKLE LAKE    CLOUDY    50  48  93 NE10G21   30.01F
DRYDEN         LGT RAIN  54  52  94 NE15G23   29.87S FOG
KENORA         DRIZZLE   55  54  94 NE9       29.89S FOG
$$
                *** MANITOBA***

CITY           SKY/WX    TMP DP  RH WIND       PRES   REMARKS
BRANDON        CLOUDY    55  52  88 NE13      29.93S
DAUPHIN        CLOUDY    54  48  82 NE7       29.97S
ISLAND LAKE    LGT RAIN  48  43  81 NE7       30.09F
PILOT MOUND      N/A     59  55  88 N9          N/A
THE PAS        CLOUDY    55  41  58 NE7       30.04S
THOMPSON       MOSUNNY   50  39  66 E7        30.12F
WINNIPEG       PTSUNNY   66  59  77 NE15      29.88S
LYNN LAKE      SUNNY     50  37  62 SE7       30.09F
CHURCHILL      SUNNY     45  32  61 SE15      30.28
GILLAM         MOSUNNY   52  37  58 E9G18     30.18F
$$
                ***SASKATCHEWAN***

CITY           SKY/WX    TMP DP  RH WIND       PRES   REMARKS
ESTEVAN        CLOUDY    61  54  77 E9        29.90S
KINDERSLEY     MOSUNNY   55  45  67 VRB3      29.87F
LLOYDMINSTER   LGT RAIN  50  48  93 W7        29.88R FOG
PRINCE ALBERT  PTSUNNY   61  48  63 E14G21    29.91F
REGINA         LGT RAIN  55  54  94 SW9       29.90R
YORKTON        CLOUDY    57  48  72 SE8       29.94S
N. BATTLEFORD  LGT RAIN  54  54 100 W10G17    29.87S
LA RONGE       CLOUDY    52  43  71 E10       30.00S
SASKATOON      LGT RAIN  57  54  88 SW13      29.87S
SWIFT CURRENT  PTSUNNY   61  45  55 SW9       29.87S
$$
NOTE: THESE ARE AUTOMATED STATIONS WITH LIMITED QUALITY CONTROL
      "FAIR" INDICATES FEW OR NO CLOUDS BELOW 12,000 FEET WITH NO
      SIGNIFICANT WEATHER AND/OR OBSTRUCTIONS TO VISIBILITY.
      SKY/WX - SKY CONDITION AND SIGNIFICANT WEATHER.
      TMP - AIR TEMPERATURE.    DP   - DEWPOINT TEMPERATURE.
      RH  - RELATIVE HUMIDITY.  PRES - PRESSURE.
      HX  - HEAT INDEX.         WCI  - WIND CHILL INDEX.
$




USA.gov is the U.S. government's official web portal to all federal, state and local government web resources and services.